SCP
0 0 -0 -1 -1 -0 -0 -0 -0 -0 -0 0 -0 -0 -0 -0 -0 -0 -0 -0 -0 -0 -0 -0 -0 0 0 -0 -0 -0 -0 0 0 0 0 -0 -0 0 0 0 0 0 0
-0 -0 -0 -0 -0 -0 -0 -0 -0 -0 -0 -0 0 0 -0 -0 -0 -0 -0 -0 -0 -0 -0 -0 -0 0 -0 -0 -0 -0 0 0 0 0 0 0 0 0 0 0 0 0 0
0 -0 0 -0 -1 -0 -0 -0 -0 -0 -0 -0 0 0 0 -0 -0 -0 -0 0 0 -0 -0 0 -0 -0 -0 0 0 0 0 0 0 0 0 0 0 0 0 0 0 0 0
0 0 0 -0 -0 -0 -0 -0 -0 -0 -0 -0 0 0 0 0 -0 -0 0 0 0 0 0 0 0 -0 -0 0 0 0 0 0 0 0 0 0 0 0 0 0 0 0 0
0 0 0 0 0 0 -0 -0 0 0 -0 -0 0 0 0 0 0 0 0 0 0 0 0 0 -0 -0 -0 -0 0 0 0 0 0 0 0 0 0 0 0 0 0 0 0
0 0 1 0 0 0 0 0 0 0 0 0 0 0 0 0 0 0 0 0 0 0 0 0 -0 -0 -0 -0 -0 0 0 0 0 0 0 0 0 0 0 0 0 0 0
0 1 1 1 0 0 0 0 0 0 0 0 0 0 0 0 0 0 0 0 0 0 0 0 0 -0 -0 -0 -0 0 0 0 0 0 0 0 0 0 0 0 0 0 0
0 0 1 1 1 1 0 0 0 0 0 0 0 0 0 0 0 0 0 0 0 0 0 0 0 -0 -0 -0 -0 0 0 0 0 0 0 0 0 0 0 0 0 0 0
1 1 1 1 1 1 1 1 1 0 0 0 0 0 0 0 0 0 0 0 0 0 0 -0 -0 -0 -0 -0 -0 -0 0 0 0 0 0 0 0 0 0 0 0 0 0
1 1 1 1 1 2 1 1 1 1 0 0 0 0 0 0 0 0 0 0 0 0 -0 -0 -0 -0 -0 -0 -0 -0 0 0 0 0 0 0 0 0 0 0 0 0 0
1 1 1 1 1 1 2 2 1 1 1 0 0 0 0 0 0 0 0 0 0 0 0 -0 -0 -0 -0 -0 -0 0 0 0 0 0 0 0 0 0 0 0 0 0 0
0 1 1 1 1 2 1 2 2 2 2 1 1 1 0 0 0 0 0 0 0 0 0 -0 -0 -0 -0 -0 0 0 0 0 0 0 0 0 0 0 0 0 0 0 0
0 1 1 1 1 2 1 2 2 2 2 2 1 1 0 0 0 0 0 0 0 0 0 0 -0 0 0 0 0 0 0 0 0 0 0 0 0 0 0 0 0 0 0
0 -0 0 1 1 1 2 2 2 2 2 2 1 1 0 0 0 0 0 0 0 0 0 0 0 0 0 0 0 0 0 0 0 0 0 0 0 0 0 0 0 0 0
0 -0 -0 0 1 0 1 2 2 2 2 1 1 1 0 0 0 0 0 0 0 0 0 0 0 0 0 0 0 0 0 0 0 0 0 0 0 0 0 0 0 0 0
0 0 -0 0 0 0 0 2 2 2 2 1 1 1 0 0 0 0 0 0 0 0 0 0 0 0 0 0 0 0 0 0 0 0 0 0 0 0 0 0 0 0 0
0 0 0 0 0 0 0 2 2 2 2 1 1 0 0 0 0 0 0 0 0 0 0 0 0 0 0 0 0 0 0 0 0 0 0 0 0 0 0 0 0 0 0
0 0 0 0 1 0 0 2 2 1 1 1 1 0 0 0 0 0 0 0 0 0 0 0 0 0 0 0 0 0 0 0 0 0 0 0 0 0 0 0 0 0 0
0 0 0 0 1 1 1 1 1 1 0 1 0 0 0 0 0 0 0 0 0 0 0 0 0 0 0 0 0 0 0 0 0 0 0 0 0 0 0 0 0 0 0
0 0 0 0 0 1 2 2 2 1 0 0 0 0 0 0 0 0 0 0 0 0 0 0 0 0 0 0 0 0 0 0 0 0 0 0 0 0 0 0 0 0 0
0 0 0 0 0 1 3 3 3 3 1 0 0 0 0 0 0 0 0 0 0 0 0 0 0 0 0 0 0 0 0 0 0 0 0 0 0 0 0 0 0 0 0
0 0 0 0 0 0 2 3 3 3 3 1 1 1 0 0 0 1 0 0 0 0 0 0 0 0 0 0 0 0 0 0 0 0 0 0 0 0 0 0 0 0 0
0 0 0 0 0 0 1 2 1 0 0 2 2 1 1 0 0 1 0 0 0 0 0 0 0 0 0 0 0 0 0 0 0 0 0 0 0 0 0 0 0 0 0
0 0 0 0 0 0 0 1 1 0 0 0 1 1 1 1 1 1 0 0 0 0 1 0 0 0 0 0 0 0 0 0 0 0 0 0 0 0 0 0 0 0 0
0 0 0 0 0 0 0 0 2 1 0 0 0 0 2 2 1 1 0 1 1 1 1 1 0 0 0 0 0 0 0 0 0 0 0 0 0 0 0 0 0 0 0
0 0 -0 0 0 0 0 0 1 2 1 1 1 1 2 0 0 0 0 1 1 1 1 0 0 0 0 0 0 0 0 0 0 0 0 0 0 0 0 0 0 0 0
Wind_Speed_500mb
44 59 55 52 49 45 43 47 50 53 51 46 43 42 40 38 34 31 30 29 27 26 25 24 23 22 21 21 19 16 12 11 10 11 11 8 21 21 25 27 29 29 29
28 56 56 51 49 46 43 44 47 49 49 45 42 41 41 38 37 35 32 29 26 24 23 23 22 21 21 21 17 16 12 9 8 9 9 10 17 23 28 31 32 30 33
28 49 54 50 48 48 46 42 44 46 47 44 43 42 39 37 33 31 28 25 24 23 23 22 20 20 21 22 18 12 9 7 7 8 14 14 21 22 28 34 33 32 34
21 39 47 50 47 46 47 44 41 41 43 43 43 43 40 35 31 28 24 24 24 22 21 20 18 18 18 17 15 11 7 3 3 5 6 13 18 20 27 32 33 33 33
19 25 40 43 46 45 46 44 42 39 39 40 41 41 38 35 30 27 25 24 22 21 20 18 16 15 15 16 15 13 8 7 1 5 2 9 12 16 24 29 31 35 35
17 16 39 42 44 47 47 46 44 41 40 39 39 40 38 35 31 26 23 23 22 21 20 18 14 12 13 14 15 12 8 4 4 5 5 7 8 15 23 28 31 37 35
17 10 21 43 43 45 45 46 46 44 41 39 40 41 39 34 29 23 20 20 21 21 18 16 13 10 11 12 14 10 6 2 9 10 9 9 10 16 22 29 35 38 35
6 6 8 32 43 43 44 45 47 46 43 41 40 41 40 36 31 25 21 20 20 19 18 16 13 11 11 12 14 11 7 4 9 12 5 10 11 17 23 29 36 37 35
13 17 16 17 35 41 42 45 47 48 45 42 41 42 41 37 32 28 23 20 21 20 18 16 14 11 14 14 14 14 9 8 9 10 11 11 15 18 24 30 36 37 34
9 28 28 24 18 36 46 47 48 50 50 46 43 43 43 40 35 31 28 25 24 22 20 18 15 13 17 21 21 17 11 7 11 14 16 16 15 18 23 29 37 37 33
16 17 34 31 24 28 45 51 53 55 54 51 48 46 46 46 42 37 32 28 27 25 22 20 17 14 19 22 18 10 4 8 15 15 11 12 12 17 21 28 32 34 33
13 17 42 40 34 33 32 54 58 59 62 60 56 52 50 47 43 37 34 32 30 28 25 22 18 17 20 20 13 8 9 8 9 7 5 8 15 14 21 29 29 31 32
24 14 20 45 41 41 36 40 64 65 66 66 62 56 52 50 47 43 38 37 35 32 27 24 21 20 25 17 12 13 12 10 6 4 4 12 14 15 22 22 27 29 27
38 32 27 23 55 48 44 39 53 67 67 68 68 61 57 56 53 47 44 40 37 34 28 26 23 27 26 20 12 17 15 18 15 8 5 9 18 22 18 19 26 27 26
41 38 33 25 31 51 45 45 57 65 68 68 67 65 64 60 57 49 46 43 39 35 32 31 31 30 25 17 16 22 22 20 20 19 19 21 24 21 17 22 25 26 30
39 39 36 29 28 34 52 49 49 59 64 65 66 68 67 63 58 53 47 44 37 31 36 33 33 28 27 22 15 24 21 25 27 14 20 21 24 20 20 23 26 27 30
44 32 36 29 30 32 39 51 57 52 56 58 65 64 67 67 64 58 54 44 38 26 33 30 33 30 30 25 24 28 31 28 18 15 21 20 18 21 23 22 29 28 34
47 45 34 35 30 33 39 50 52 60 57 57 56 56 68 70 69 64 61 53 41 36 35 36 33 32 33 37 31 27 20 23 21 22 24 20 17 21 15 24 31 29 28
53 50 49 45 42 43 38 44 51 60 64 63 63 58 58 72 71 70 66 56 44 40 42 35 32 34 34 36 32 28 20 23 24 27 22 20 17 14 18 25 28 28 29
28 54 58 52 52 46 50 42 56 68 69 65 67 65 59 67 71 74 73 59 50 54 45 41 39 36 33 33 30 26 19 21 28 27 22 21 17 18 17 27 26 28 28
21 21 39 61 59 63 57 61 56 68 78 71 75 66 61 58 67 74 76 63 61 65 60 51 45 41 38 34 33 26 28 26 25 26 22 20 16 19 23 25 25 26 27
45 38 34 37 60 68 71 62 63 68 72 81 75 78 68 66 64 69 83 69 69 63 64 56 50 47 46 40 35 29 21 17 22 23 19 13 16 21 25 26 23 23 25
66 60 53 53 48 61 75 72 67 63 72 69 77 80 79 83 74 68 81 84 74 66 69 59 60 52 53 45 35 24 13 15 18 19 17 18 22 22 23 19 17 17 21
65 53 50 52 52 47 65 84 84 82 76 80 67 85 96 80 92 87 80 87 83 72 71 63 62 58 52 47 40 34 28 23 15 17 24 24 21 21 19 16 18 19 21
70 66 67 61 58 52 48 76 94 92 87 82 77 86 104 94 94 98 98 84 84 76 71 67 60 56 50 45 41 36 28 23 22 19 24 25 12 17 11 15 14 10 18
73 66 71 74 72 67 63 61 89 103 90 89 82 85 92 104 96 90 81 93 82 79 74 70 64 56 52 50 45 39 32 25 23 24 26 24 16 9 10 13 9 14 28
Wind_Direction_500mb
165 171 168 169 167 161 158 158 159 161 164 162 162 161 159 159 156 152 152 152 146 135 127 122 119 115 112 111 116 121 129 120 97 81 103 97 25 29 26 18 16 15 15
165 170 168 172 171 166 161 161 162 164 165 165 164 163 161 161 158 155 154 151 144 136 130 126 122 119 116 116 134 138 137 124 94 79 100 96 28 27 18 12 11 12 13
167 172 170 175 176 172 166 163 166 168 168 168 167 165 163 161 158 154 152 148 143 140 135 129 125 125 124 126 137 137 136 118 97 49 143 39 33 25 17 10 8 7 7
148 173 176 178 180 180 175 169 168 170 171 171 171 169 165 163 159 156 154 151 146 146 142 135 133 126 124 129 136 146 141 112 52 51 143 23 23 14 17 10 6 3 3
150 171 181 185 183 184 184 179 173 172 175 176 176 175 171 167 164 163 161 159 154 152 148 143 137 127 123 128 132 136 131 123 76 28 221 3 7 356 13 10 6 358 357
154 164 192 191 192 187 186 187 183 178 177 180 181 183 180 175 174 173 168 164 161 163 159 151 143 130 120 127 132 136 144 162 262 342 352 317 337 346 4 1 357 353 355
154 175 198 200 199 196 191 190 192 187 182 182 187 189 188 185 182 181 178 174 173 173 165 159 154 139 124 127 135 153 188 246 291 313 330 302 308 330 349 352 353 351 351
217 203 194 207 207 205 201 196 196 197 191 187 190 194 195 192 190 190 189 186 183 181 178 171 166 150 130 128 139 165 215 231 274 284 281 294 287 315 340 346 351 348 346
234 242 232 205 216 215 212 207 202 200 200 195 193 196 198 198 195 197 196 194 191 192 189 184 180 163 136 139 150 155 219 236 261 283 284 297 283 306 334 346 353 346 344
309 253 234 229 225 226 222 218 211 206 203 204 201 200 201 202 201 202 202 201 199 198 198 195 188 174 147 129 133 154 199 268 287 284 269 280 278 307 335 348 354 345 340
329 260 232 232 232 223 224 223 220 211 208 206 208 206 205 205 205 206 206 205 205 203 204 200 193 182 164 152 147 140 296 302 283 285 279 288 270 310 334 350 352 342 340
8 263 219 229 253 233 233 227 222 217 211 209 209 211 210 210 212 213 212 211 210 209 208 203 195 189 174 173 183 191 313 292 274 253 267 245 283 306 337 347 342 338 340
317 331 277 246 238 250 246 234 225 219 215 212 211 212 215 214 214 216 217 216 215 215 214 206 197 190 183 173 158 197 236 279 262 307 188 244 271 321 335 328 327 334 338
300 306 293 291 240 241 246 243 237 221 218 216 214 212 214 217 218 218 221 220 220 219 218 208 199 181 183 195 196 222 233 259 277 300 267 278 305 316 314 313 315 325 329
291 291 299 287 259 244 239 242 233 228 225 222 219 218 217 219 221 221 225 223 223 222 216 206 187 185 180 181 201 221 230 261 290 297 299 293 299 307 301 307 311 315 324
281 280 285 276 263 253 258 259 249 237 231 226 225 223 222 222 223 226 226 221 216 218 209 207 199 202 198 208 221 197 247 266 283 286 295 289 302 299 301 310 309 313 324
270 277 284 270 259 242 252 256 260 249 241 233 231 229 227 225 225 226 226 217 209 197 190 187 194 194 206 210 198 217 246 273 289 271 292 289 303 297 311 318 316 318 326
262 264 259 264 245 246 236 257 254 252 245 242 237 236 231 228 226 227 225 219 211 205 210 215 221 230 222 208 227 239 246 273 251 282 296 291 297 292 309 322 311 308 318
256 259 250 249 259 253 239 244 256 246 243 242 247 240 238 230 227 226 224 221 216 218 221 223 211 200 205 220 224 233 247 250 263 284 288 286 291 286 301 306 301 296 307
306 259 248 253 246 255 251 238 244 248 241 243 243 243 240 233 228 223 218 219 219 224 224 213 208 221 225 222 219 229 224 232 268 279 279 283 299 296 291 308 297 291 300
332 336 280 255 251 243 246 245 237 240 245 237 236 241 235 230 226 221 216 215 219 224 221 221 225 228 224 221 222 231 246 256 252 257 257 274 291 287 289 300 284 281 303
299 294 294 290 261 250 243 252 252 239 241 246 240 235 237 233 229 224 216 216 217 221 221 220 222 216 224 229 235 238 251 247 220 233 248 263 264 261 280 295 281 285 296
297 287 276 272 276 261 248 247 249 245 241 241 237 233 231 237 231 227 222 222 220 221 215 216 223 221 227 233 233 223 210 224 189 213 213 233 233 247 269 282 266 283 295
305 296 287 271 271 272 251 244 244 246 246 249 240 236 245 236 231 229 225 223 221 220 218 218 223 227 231 232 224 223 228 231 190 181 204 217 224 250 275 255 254 273 299
310 291 287 290 274 267 272 248 246 244 249 253 248 231 235 229 230 223 224 223 218 219 218 220 224 226 226 226 221 217 214 227 222 210 204 209 240 295 271 232 259 291 318
316 303 284 285 282 275 272 263 249 244 242 242 240 237 232 231 226 223 227 226 218 216 218 219 224 224 228 229 226 224 231 229 235 229 229 242 257 229 230 229 243 293 308
Wind_Speed_850mb
44 59 55 52 49 45 43 47 50 53 51 46 43 42 40 38 34 31 30 29 27 26 25 24 23 22 21 21 19 16 12 11 10 11 11 8 21 21 25 27 29 29 29
28 56 56 51 49 46 43 44 47 49 49 45 42 41 41 38 37 35 32 29 26 24 23 23 22 21 21 21 17 16 12 9 8 9 9 10 17 23 28 31 32 30 33
28 49 54 50 48 48 46 42 44 46 47 44 43 42 39 37 33 31 28 25 24 23 23 22 20 20 21 22 18 12 9 7 7 8 14 14 21 22 28 34 33 32 34
21 39 47 50 47 46 47 44 41 41 43 43 43 43 40 35 31 28 24 24 24 22 21 20 18 18 18 17 15 11 7 3 3 5 6 13 18 20 27 32 33 33 33
19 25 40 43 46 45 46 44 42 39 39 40 41 41 38 35 30 27 25 24 22 21 20 18 16 15 15 16 15 13 8 7 1 5 2 9 12 16 24 29 31 35 35
17 16 39 42 44 47 47 46 44 41 40 39 39 40 38 35 31 26 23 23 22 21 20 18 14 12 13 14 15 12 8 4 4 5 5 7 8 15 23 28 31 37 35
17 10 21 43 43 45 45 46 46 44 41 39 40 41 39 34 29 23 20 20 21 21 18 16 13 10 11 12 14 10 6 2 9 10 9 9 10 16 22 29 35 38 35
6 6 8 32 43 43 44 45 47 46 43 41 40 41 40 36 31 25 21 20 20 19 18 16 13 11 11 12 14 11 7 4 9 12 5 10 11 17 23 29 36 37 35
13 17 16 17 35 41 42 45 47 48 45 42 41 42 41 37 32 28 23 20 21 20 18 16 14 11 14 14 14 14 9 8 9 10 11 11 15 18 24 30 36 37 34
9 28 28 24 18 36 46 47 48 50 50 46 43 43 43 40 35 31 28 25 24 22 20 18 15 13 17 21 21 17 11 7 11 14 16 16 15 18 23 29 37 37 33
16 17 34 31 24 28 45 51 53 55 54 51 48 46 46 46 42 37 32 28 27 25 22 20 17 14 19 22 18 10 4 8 15 15 11 12 12 17 21 28 32 34 33
13 17 42 40 34 33 32 54 58 59 62 60 56 52 50 47 43 37 34 32 30 28 25 22 18 17 20 20 13 8 9 8 9 7 5 8 15 14 21 29 29 31 32
24 14 20 45 41 41 36 40 64 65 66 66 62 56 52 50 47 43 38 37 35 32 27 24 21 20 25 17 12 13 12 10 6 4 4 12 14 15 22 22 27 29 27
38 32 27 23 55 48 44 39 53 67 67 68 68 61 57 56 53 47 44 40 37 34 28 26 23 27 26 20 12 17 15 18 15 8 5 9 18 22 18 19 26 27 26
41 38 33 25 31 51 45 45 57 65 68 68 67 65 64 60 57 49 46 43 39 35 32 31 31 30 25 17 16 22 22 20 20 19 19 21 24 21 17 22 25 26 30
39 39 36 29 28 34 52 49 49 59 64 65 66 68 67 63 58 53 47 44 37 31 36 33 33 28 27 22 15 24 21 25 27 14 20 21 24 20 20 23 26 27 30
44 32 36 29 30 32 39 51 57 52 56 58 65 64 67 67 64 58 54 44 38 26 33 30 33 30 30 25 24 28 31 28 18 15 21 20 18 21 23 22 29 28 34
47 45 34 35 30 33 39 50 52 60 57 57 56 56 68 70 69 64 61 53 41 36 35 36 33 32 33 37 31 27 20 23 21 22 24 20 17 21 15 24 31 29 28
53 50 49 45 42 43 38 44 51 60 64 63 63 58 58 72 71 70 66 56 44 40 42 35 32 34 34 36 32 28 20 23 24 27 22 20 17 14 18 25 28 28 29
28 54 58 52 52 46 50 42 56 68 69 65 67 65 59 67 71 74 73 59 50 54 45 41 39 36 33 33 30 26 19 21 28 27 22 21 17 18 17 27 26 28 28
21 21 39 61 59 63 57 61 56 68 78 71 75 66 61 58 67 74 76 63 61 65 60 51 45 41 38 34 33 26 28 26 25 26 22 20 16 19 23 25 25 26 27
45 38 34 37 60 68 71 62 63 68 72 81 75 78 68 66 64 69 83 69 69 63 64 56 50 47 46 40 35 29 21 17 22 23 19 13 16 21 25 26 23 23 25
66 60 53 53 48 61 75 72 67 63 72 69 77 80 79 83 74 68 81 84 74 66 69 59 60 52 53 45 35 24 13 15 18 19 17 18 22 22 23 19 17 17 21
65 53 50 52 52 47 65 84 84 82 76 80 67 85 96 80 92 87 80 87 83 72 71 63 62 58 52 47 40 34 28 23 15 17 24 24 21 21 19 16 18 19 21
70 66 67 61 58 52 48 76 94 92 87 82 77 86 104 94 94 98 98 84 84 76 71 67 60 56 50 45 41 36 28 23 22 19 24 25 12 17 11 15 14 10 18
73 66 71 74 72 67 63 61 89 103 90 89 82 85 92 104 96 90 81 93 82 79 74 70 64 56 52 50 45 39 32 25 23 24 26 24 16 9 10 13 9 14 28
Wind_Direction_850mb
165 171 168 169 167 161 158 158 159 161 164 162 162 161 159 159 156 152 152 152 146 135 127 122 119 115 112 111 116 121 129 120 97 81 103 97 25 29 26 18 16 15 15
165 170 168 172 171 166 161 161 162 164 165 165 164 163 161 161 158 155 154 151 144 136 130 126 122 119 116 116 134 138 137 124 94 79 100 96 28 27 18 12 11 12 13
167 172 170 175 176 172 166 163 166 168 168 168 167 165 163 161 158 154 152 148 143 140 135 129 125 125 124 126 137 137 136 118 97 49 143 39 33 25 17 10 8 7 7
148 173 176 178 180 180 175 169 168 170 171 171 171 169 165 163 159 156 154 151 146 146 142 135 133 126 124 129 136 146 141 112 52 51 143 23 23 14 17 10 6 3 3
150 171 181 185 183 184 184 179 173 172 175 176 176 175 171 167 164 163 161 159 154 152 148 143 137 127 123 128 132 136 131 123 76 28 221 3 7 356 13 10 6 358 357
154 164 192 191 192 187 186 187 183 178 177 180 181 183 180 175 174 173 168 164 161 163 159 151 143 130 120 127 132 136 144 162 262 342 352 317 337 346 4 1 357 353 355
154 175 198 200 199 196 191 190 192 187 182 182 187 189 188 185 182 181 178 174 173 173 165 159 154 139 124 127 135 153 188 246 291 313 330 302 308 330 349 352 353 351 351
217 203 194 207 207 205 201 196 196 197 191 187 190 194 195 192 190 190 189 186 183 181 178 171 166 150 130 128 139 165 215 231 274 284 281 294 287 315 340 346 351 348 346
234 242 232 205 216 215 212 207 202 200 200 195 193 196 198 198 195 197 196 194 191 192 189 184 180 163 136 139 150 155 219 236 261 283 284 297 283 306 334 346 353 346 344
309 253 234 229 225 226 222 218 211 206 203 204 201 200 201 202 201 202 202 201 199 198 198 195 188 174 147 129 133 154 199 268 287 284 269 280 278 307 335 348 354 345 340
329 260 232 232 232 223 224 223 220 211 208 206 208 206 205 205 205 206 206 205 205 203 204 200 193 182 164 152 147 140 296 302 283 285 279 288 270 310 334 350 352 342 340
8 263 219 229 253 233 233 227 222 217 211 209 209 211 210 210 212 213 212 211 210 209 208 203 195 189 174 173 183 191 313 292 274 253 267 245 283 306 337 347 342 338 340
317 331 277 246 238 250 246 234 225 219 215 212 211 212 215 214 214 216 217 216 215 215 214 206 197 190 183 173 158 197 236 279 262 307 188 244 271 321 335 328 327 334 338
300 306 293 291 240 241 246 243 237 221 218 216 214 212 214 217 218 218 221 220 220 219 218 208 199 181 183 195 196 222 233 259 277 300 267 278 305 316 314 313 315 325 329
291 291 299 287 259 244 239 242 233 228 225 222 219 218 217 219 221 221 225 223 223 222 216 206 187 185 180 181 201 221 230 261 290 297 299 293 299 307 301 307 311 315 324
281 280 285 276 263 253 258 259 249 237 231 226 225 223 222 222 223 226 226 221 216 218 209 207 199 202 198 208 221 197 247 266 283 286 295 289 302 299 301 310 309 313 324
270 277 284 270 259 242 252 256 260 249 241 233 231 229 227 225 225 226 226 217 209 197 190 187 194 194 206 210 198 217 246 273 289 271 292 289 303 297 311 318 316 318 326
262 264 259 264 245 246 236 257 254 252 245 242 237 236 231 228 226 227 225 219 211 205 210 215 221 230 222 208 227 239 246 273 251 282 296 291 297 292 309 322 311 308 318
256 259 250 249 259 253 239 244 256 246 243 242 247 240 238 230 227 226 224 221 216 218 221 223 211 200 205 220 224 233 247 250 263 284 288 286 291 286 301 306 301 296 307
306 259 248 253 246 255 251 238 244 248 241 243 243 243 240 233 228 223 218 219 219 224 224 213 208 221 225 222 219 229 224 232 268 279 279 283 299 296 291 308 297 291 300
332 336 280 255 251 243 246 245 237 240 245 237 236 241 235 230 226 221 216 215 219 224 221 221 225 228 224 221 222 231 246 256 252 257 257 274 291 287 289 300 284 281 303
299 294 294 290 261 250 243 252 252 239 241 246 240 235 237 233 229 224 216 216 217 221 221 220 222 216 224 229 235 238 251 247 220 233 248 263 264 261 280 295 281 285 296
297 287 276 272 276 261 248 247 249 245 241 241 237 233 231 237 231 227 222 222 220 221 215 216 223 221 227 233 233 223 210 224 189 213 213 233 233 247 269 282 266 283 295
305 296 287 271 271 272 251 244 244 246 246 249 240 236 245 236 231 229 225 223 221 220 218 218 223 227 231 232 224 223 228 231 190 181 204 217 224 250 275 255 254 273 299
310 291 287 290 274 267 272 248 246 244 249 253 248 231 235 229 230 223 224 223 218 219 218 220 224 226 226 226 221 217 214 227 222 210 204 209 240 295 271 232 259 291 318
316 303 284 285 282 275 272 263 249 244 242 242 240 237 232 231 226 223 227 226 218 216 218 219 224 224 228 229 226 224 231 229 235 229 229 242 257 229 230 229 243 293 308